Theta_e
342 344 345 346 347 348 347 346 345 344 343 343 343 344 344 344 346 345 347 349 349 348 348 347 345 345 347 346 346 350 352 353 353 352 352 352 352 352 354 357 357 359 360 358 357 360 358 355 354 353 354 354 349 347 348 349 352 356 355 353 355 348 345 346 345 341 335 333 332 337 338 341 346 347 347 349 349 350 351 353 354 356 357 357 359
346 344 344 344 346 347 347 346 347 342 342 342 342 343 343 343 343 344 346 347 348 348 349 348 347 346 347 347 347 350 351 351 351 351 351 352 351 351 354 356 356 357 361 358 359 357 357 356 355 354 354 354 354 354 352 363 358 354 353 348 351 348 345 345 346 341 333 329 326 326 335 339 345 347 346 347 348 349 350 351 352 353 353 353 356
342 342 343 342 343 345 345 345 345 344 343 344 344 343 341 341 341 343 345 347 347 348 350 348 348 348 350 349 349 349 353 354 353 353 353 351 350 350 353 355 356 357 359 361 358 357 357 356 355 354 353 356 355 353 354 354 353 353 352 350 348 349 347 349 346 341 335 333 332 334 326 329 340 341 343 345 347 347 349 349 351 351 352 352 354
339 340 340 341 342 343 344 344 344 344 344 344 344 344 342 343 341 343 345 347 347 348 352 350 350 350 352 352 351 350 350 353 352 352 351 351 349 351 354 355 357 357 359 360 359 358 357 355 355 354 354 355 353 351 351 351 351 352 353 352 350 344 342 341 348 342 339 336 328 329 330 330 324 328 335 339 343 346 348 348 350 350 349 350 351
337 339 339 340 341 342 342 343 344 343 343 343 344 344 344 342 343 345 346 347 348 350 351 351 353 352 353 353 355 353 354 352 349 349 349 350 352 352 355 355 357 357 358 359 360 357 357 356 355 355 354 353 354 352 351 353 354 353 352 351 348 344 341 343 343 345 339 336 334 331 324 324 323 325 337 332 337 340 343 346 349 349 348 347 348
337 338 339 340 341 342 342 343 343 343 343 344 345 345 344 344 345 346 349 348 349 350 352 352 353 351 350 348 347 346 345 346 345 346 347 347 349 354 356 356 357 357 357 358 359 359 356 356 356 355 354 355 355 353 353 354 353 352 351 351 349 348 345 342 341 346 348 347 334 333 330 324 328 329 326 320 332 340 339 343 344 347 348 347 346
337 338 339 339 340 341 342 342 343 343 343 345 344 345 345 345 345 347 349 349 350 352 353 354 352 351 350 349 348 347 345 346 347 348 348 349 348 353 354 357 357 356 356 357 357 359 357 356 356 355 355 353 358 354 352 352 352 353 354 350 348 350 347 342 343 344 343 342 342 338 334 334 332 328 324 326 321 324 333 337 340 343 345 346 346
337 338 340 341 341 341 341 342 343 343 345 345 344 345 345 345 345 347 349 352 351 353 353 354 352 351 350 349 350 348 347 347 347 347 348 349 345 351 353 356 356 356 355 356 356 358 358 356 356 355 354 353 357 356 352 352 353 354 355 353 351 351 349 346 344 346 342 340 345 340 340 340 337 335 329 326 325 324 325 330 336 340 342 345 346
339 338 341 341 341 342 342 342 344 344 345 344 344 344 345 346 347 347 348 352 351 354 353 353 354 352 351 350 349 350 349 349 351 351 348 350 346 349 352 354 355 355 355 355 355 356 360 357 356 355 354 353 359 357 354 354 352 352 351 353 353 352 352 349 346 345 343 340 340 338 339 339 337 336 334 331 329 325 324 326 327 330 336 341 344
339 339 341 342 342 342 343 344 344 344 345 346 346 348 346 347 347 347 347 351 352 353 354 353 353 354 350 350 348 348 350 350 350 350 350 351 346 346 349 351 353 353 353 353 354 354 356 358 356 355 355 355 360 356 355 353 352 352 352 352 353 350 351 355 351 347 345 344 342 341 338 338 335 334 333 333 331 329 325 325 327 327 326 328 335
339 339 340 342 343 343 344 343 343 344 346 346 346 346 347 346 347 346 347 350 352 353 353 353 353 353 351 350 349 348 348 348 348 348 348 347 348 348 348 349 351 352 353 353 353 354 355 358 357 356 357 360 361 357 355 354 353 352 353 354 355 353 350 352 354 351 350 347 346 342 340 338 336 334 333 333 332 328 327 327 328 329 328 328 333
340 340 340 341 341 341 343 343 343 343 345 346 346 345 347 348 347 346 348 349 351 353 353 353 353 352 351 350 349 349 348 348 348 347 347 346 346 346 349 349 350 352 352 353 352 353 355 357 359 357 358 357 358 357 356 355 354 353 352 352 352 352 352 354 349 347 348 347 345 344 342 340 338 336 336 336 332 331 331 328 328 330 333 333 335
339 339 340 340 340 339 340 341 342 342 342 345 345 345 345 348 348 347 347 350 350 352 353 353 352 352 351 350 350 351 350 349 348 348 348 347 345 346 350 348 349 350 351 352 352 353 354 355 356 355 356 357 357 356 356 355 354 351 350 350 351 351 351 352 350 349 348 346 344 345 344 342 340 339 337 335 335 335 334 332 331 338 334 335 337
332 335 338 340 340 340 340 340 341 341 343 344 345 345 344 347 349 348 348 350 352 351 352 352 352 353 352 351 351 352 351 352 350 349 349 348 346 346 350 350 349 350 351 352 353 355 355 356 357 356 355 356 357 355 355 355 354 351 350 350 350 351 352 351 350 350 349 348 347 346 345 343 342 341 340 339 339 338 337 336 336 336 339 336 339
336 337 336 337 341 341 340 340 340 341 343 344 344 345 345 344 349 350 349 350 353 352 352 352 352 353 353 353 353 353 352 353 353 353 351 349 348 347 349 351 351 351 352 353 355 355 355 355 356 356 355 355 356 355 356 354 354 355 358 354 355 354 352 353 351 350 350 349 348 348 347 345 344 348 345 343 342 342 340 340 337 334 333 334 337
335 336 337 339 339 342 342 341 341 342 343 344 344 345 344 345 348 350 350 351 352 355 353 353 353 354 354 354 354 355 356 354 354 357 355 352 350 348 348 350 352 352 353 354 355 355 354 354 356 356 355 355 355 355 354 354 353 351 349 353 348 355 351 353 352 351 351 350 348 347 346 347 350 349 347 346 347 345 344 343 340 335 332 329 333
334 335 336 337 338 339 343 342 342 342 343 343 344 345 345 345 347 350 351 352 351 355 354 354 354 353 354 355 355 356 356 355 354 354 355 354 351 349 348 349 350 352 353 355 354 355 355 354 354 356 355 355 354 356 355 353 351 350 350 347 347 349 357 353 354 350 351 350 349 350 348 349 351 352 351 351 350 349 346 345 344 340 337 333 330
334 335 336 337 338 339 342 344 343 342 343 344 344 345 347 347 348 350 351 351 352 355 356 355 354 354 354 354 355 356 357 356 356 355 355 355 354 351 349 348 348 350 352 354 354 354 354 360 353 354 354 355 354 355 356 353 353 351 350 349 348 349 356 357 356 352 351 350 352 349 348 346 354 352 352 351 351 350 349 348 347 346 342 337 335
332 332 334 336 338 339 340 342 343 342 343 344 344 345 347 348 349 351 351 353 353 354 355 356 357 356 356 356 356 356 357 357 357 357 356 355 354 353 351 350 350 349 351 350 351 353 353 354 353 353 353 354 353 353 354 352 352 351 353 352 352 351 352 352 352 354 351 351 350 349 349 353 354 353 353 353 354 353 352 351 349 348 346 342 340
331 332 334 336 338 339 341 340 341 342 341 342 344 344 345 349 354 351 352 353 353 352 353 355 357 356 356 357 357 357 358 358 358 356 355 354 354 355 353 351 350 350 349 350 350 351 353 352 353 353 353 353 353 353 353 352 352 351 354 356 356 354 352 350 352 354 356 352 351 351 350 348 350 352 351 352 352 351 351 349 349 347 345 344 342
331 333 334 336 337 338 341 342 342 343 342 341 343 344 345 351 355 354 353 352 352 352 352 353 356 357 357 356 357 357 357 357 357 355 354 353 352 355 354 353 351 348 347 348 348 349 351 353 352 352 352 352 353 352 353 352 353 354 355 354 355 355 353 353 354 353 355 354 352 349 347 349 351 351 351 352 352 351 348 347 347 345 344 344 342
331 333 335 336 337 338 340 342 344 342 344 342 344 346 348 349 353 354 353 352 351 352 352 352 354 355 354 356 357 357 356 355 354 353 353 352 351 351 351 351 349 349 347 346 346 349 351 352 351 351 351 352 353 353 354 353 353 355 355 356 355 353 352 352 351 350 351 352 348 346 346 348 350 350 350 352 352 351 348 348 346 346 345 343 345
331 333 335 337 338 339 339 341 341 343 345 346 346 347 347 348 350 353 352 352 353 352 352 352 353 352 352 353 355 355 355 353 353 352 352 352 351 351 355 353 350 351 351 350 348 346 350 351 351 350 349 350 353 353 354 355 355 355 355 355 356 353 351 350 350 348 349 349 348 347 345 346 350 349 350 350 351 350 349 346 345 346 346 344 345
331 333 336 338 339 340 339 340 341 342 344 345 345 346 347 347 349 352 352 353 353 353 352 351 351 352 352 352 351 353 353 352 351 352 351 351 351 352 354 354 354 353 353 351 351 351 348 349 350 350 350 356 358 357 357 356 357 356 355 353 350 350 350 349 349 349 347 346 345 343 345 345 346 346 345 346 347 348 347 346 345 345 345 344 344
330 332 334 336 337 338 339 341 341 342 343 344 345 345 346 346 348 350 352 354 353 353 351 351 351 350 351 350 350 351 351 350 350 350 350 351 352 352 352 350 347 349 350 351 354 357 354 353 354 356 357 357 357 358 358 358 357 355 353 351 350 349 348 346 347 347 353 345 347 343 344 345 346 343 342 342 344 345 346 346 344 344 343 343 344
329 331 333 334 336 337 339 341 342 344 344 344 344 344 344 345 346 350 350 349 351 352 351 351 350 350 350 350 350 350 350 350 350 349 350 351 352 348 347 350 350 349 350 352 353 357 357 351 352 354 354 353 355 357 356 355 354 352 351 350 350 347 346 348 347 347 348 346 344 345 346 344 343 341 342 342 343 343 343 343 343 343 343 344 343
329 331 332 334 335 336 337 340 341 341 343 344 345 345 345 346 347 349 348 348 348 349 351 350 350 350 350 350 350 350 350 350 351 350 352 352 349 348 349 350 352 351 352 352 354 357 356 353 352 351 351 353 353 352 352 352 351 351 350 350 348 347 346 346 346 346 347 347 345 346 345 345 343 342 343 342 343 342 343 343 345 343 342 340 338
329 330 330 332 334 336 337 338 341 342 341 341 343 347 348 348 348 348 348 349 349 350 350 350 350 350 350 350 351 351 350 350 351 353 353 354 350 350 349 350 352 351 352 353 355 358 356 354 353 352 352 352 349 348 349 350 350 350 349 346 345 345 344 344 344 344 345 345 346 346 347 347 346 345 344 344 344 343 341 341 343 342 342 339 338
328 329 330 330 334 336 337 337 338 339 340 341 343 342 344 347 347 348 349 349 350 349 349 350 350 349 350 351 351 351 351 354 355 354 355 354 351 349 349 349 350 351 353 353 356 358 355 353 352 352 351 351 350 349 350 351 350 349 348 346 345 346 346 346 344 344 345 345 345 347 347 347 351 355 355 354 354 354 345 342 342 341 341 340 339
327 328 329 331 333 336 338 339 338 339 339 340 341 342 344 346 349 350 349 350 349 347 347 348 349 350 350 350 351 352 353 356 355 354 354 352 350 350 349 349 349 350 351 353 355 356 354 351 349 348 350 349 348 351 357 359 358 352 349 349 348 348 347 346 345 344 346 346 346 346 351 355 353 354 354 352 352 352 354 350 345 340 341 342 342
328 329 330 331 333 337 339 339 338 339 339 339 339 340 342 344 346 348 349 349 350 349 348 347 347 349 349 349 349 350 353 356 352 351 352 352 350 349 349 349 349 348 350 353 354 355 353 351 349 349 349 347 349 355 360 348 352 358 353 350 350 348 348 347 347 344 343 346 346 348 347 348 348 347 344 347 347 347 347 347 349 351 354 347 342
328 329 329 329 331 335 337 338 339 338 339 340 340 341 342 343 345 348 349 351 350 348 347 348 349 350 349 348 347 347 347 349 348 347 351 352 351 349 347 348 348 348 349 352 351 353 353 352 351 350 350 350 350 353 342 346 349 353 359 354 352 351 351 348 346 345 345 346 346 346 344 344 342 342 338 333 337 344 344 348 350 351 352 353 355
328 328 328 328 330 334 335 338 340 338 339 340 341 342 342 342 343 345 347 347 347 347 346 346 348 350 350 346 344 343 344 346 348 348 350 352 349 348 348 348 348 349 349 349 349 350 352 351 350 348 346 345 342 342 338 342 342 343 352 356 351 350 348 347 347 346 346 347 346 343 339 337 335 342 336 330 329 330 341 347 349 348 349 352 349
329 329 328 330 332 334 335 337 341 341 341 342 343 343 343 344 345 344 343 342 344 346 348 349 350 349 344 343 342 341 342 346 348 349 351 352 350 349 350 350 350 350 347 347 348 350 351 349 349 347 343 342 341 342 336 337 336 338 343 353 349 348 348 347 347 346 343 344 344 341 337 334 330 329 330 329 328 329 330 334 336 338 340 346 351
329 328 329 331 333 334 335 336 340 343 343 341 340 341 343 342 343 343 342 342 343 345 346 346 345 343 344 343 343 342 343 344 346 349 351 351 351 350 350 350 348 347 346 347 349 350 350 350 348 344 342 340 341 334 333 334 332 332 339 354 349 350 348 347 344 341 341 342 341 341 337 333 329 327 329 330 329 330 331 334 334 331 331 333 336
329 328 330 332 333 334 336 338 344 343 342 342 341 343 343 342 342 342 342 342 343 345 347 347 343 344 344 344 345 344 345 346 346 347 348 348 348 349 348 348 347 346 347 349 350 351 351 349 346 343 339 335 333 328 328 328 328 330 345 352 349 348 347 344 341 338 337 338 337 336 334 330 327 325 329 330 335 336 331 333 331 329 329 330 332
331 333 332 333 336 338 340 343 340 339 342 342 342 342 343 343 342 340 341 341 342 345 347 347 343 343 344 346 346 346 346 346 346 346 346 346 346 346 346 348 347 346 347 348 349 349 349 346 343 340 338 336 335 326 323 322 322 327 346 346 348 345 342 339 337 336 335 334 333 331 329 326 325 326 327 322 332 336 330 330 329 328 329 329 329
333 333 334 334 338 338 340 342 340 339 340 342 343 343 343 343 343 342 341 341 341 343 344 344 343 342 345 346 346 346 345 345 343 344 345 345 346 346 346 349 346 346 347 349 347 346 346 344 342 339 339 336 332 327 321 321 321 328 346 345 344 341 339 337 336 337 338 338 340 340 333 325 325 326 323 322 329 334 328 328 328 328 327 326 326
333 333 334 336 337 336 339 342 339 337 338 341 342 342 341 342 343 341 340 340 341 342 342 343 343 344 345 347 347 346 345 344 343 344 344 344 345 345 346 347 346 347 349 348 348 346 344 343 342 341 344 334 331 329 320 324 327 334 343 344 343 339 334 332 331 329 330 330 332 338 340 334 328 324 319 320 328 333 327 327 327 326 325 324 324
332 335 337 338 338 335 335 337 338 338 340 341 341 340 340 341 342 343 341 340 341 343 342 343 345 346 348 348 348 347 346 345 343 344 344 343 345 346 346 346 347 346 346 346 345 344 343 343 343 339 336 333 330 328 328 322 324 327 334 343 341 336 332 329 329 329 328 328 328 328 329 322 320 318 315 318 323 327 326 326 326 325 323 322 325
334 335 341 338 337 335 337 338 339 340 341 341 340 338 338 338 339 340 342 343 344 344 342 343 343 344 345 344 345 345 344 345 346 344 346 346 344 344 347 347 347 345 343 341 342 342 341 338 336 334 333 332 330 326 326 320 320 323 329 338 339 337 334 333 332 332 328 327 327 327 326 322 317 316 313 314 318 324 329 325 325 324 325 325 327
332 335 338 339 337 336 337 336 335 337 340 340 339 337 338 338 336 336 340 342 345 342 341 342 342 342 343 344 344 345 347 347 346 346 346 346 347 347 346 346 343 339 339 340 341 341 338 335 335 335 335 334 336 333 327 321 319 318 322 331 339 340 339 336 332 330 328 328 327 326 326 322 316 315 311 311 316 321 326 325 321 319 320 324 323
329 330 336 339 337 336 336 334 334 335 336 338 337 335 335 337 335 337 340 345 347 344 342 342 342 343 344 344 345 346 347 347 346 346 346 345 345 342 341 342 340 339 338 338 338 336 335 334 334 334 333 332 332 334 334 327 320 316 318 324 330 338 332 337 331 330 329 328 329 328 331 327 316 311 310 312 317 320 325 316 314 316 318 320 321
331 332 334 338 337 337 336 335 334 336 335 336 336 335 335 336 336 338 341 345 346 344 342 342 343 343 343 344 346 347 346 346 346 347 347 344 339 338 339 338 338 337 337 338 337 335 334 333 332 331 332 332 332 331 334 334 328 320 318 319 323 326 331 335 335 331 331 330 329 329 330 315 309 305 311 315 317 323 318 312 314 317 319 320 315
331 331 334 337 335 334 336 336 336 335 334 335 336 336 337 336 338 342 343 345 345 345 342 341 341 341 343 345 347 345 345 346 347 347 343 339 336 336 337 338 338 338 338 337 336 335 333 332 332 330 329 330 330 331 332 336 336 331 323 321 322 323 323 326 335 335 335 332 328 319 311 312 313 313 318 318 319 320 315 315 316 319 320 311 312
333 334 335 334 336 335 335 335 336 336 335 338 338 338 337 339 341 343 342 344 345 343 342 342 342 342 344 344 343 343 343 345 347 347 344 340 337 337 337 337 337 337 338 338 336 335 333 332 330 330 330 330 332 331 330 333 341 340 334 327 326 333 341 341 338 333 337 325 318 314 315 317 325 328 329 325 322 322 322 322 320 319 311 312 310
332 335 338 336 334 333 333 334 335 337 337 339 338 340 339 340 341 343 343 342 341 341 343 343 342 342 341 341 340 339 340 343 344 345 344 342 340 339 338 338 337 337 339 339 337 335 333 332 331 331 333 331 327 325 325 326 326 326 325 327 327 329 334 332 326 326 331 327 326 330 331 327 323 326 326 324 322 321 319 315 312 312 312 311 312
333 334 336 333 333 332 333 334 334 335 337 338 339 339 341 343 343 343 342 341 341 341 341 341 342 340 340 340 339 343 339 333 332 335 338 339 340 340 339 338 338 339 339 339 338 335 333 332 332 333 328 325 322 320 320 319 319 320 318 318 320 320 318 318 317 316 317 328 335 337 329 325 321 316 315 314 314 316 316 315 311 310 309 313 316
332 333 334 332 333 333 333 333 334 336 337 337 338 340 341 343 344 344 342 340 339 341 339 339 339 338 337 338 337 334 329 325 320 316 312 313 316 321 333 328 322 326 340 341 339 337 336 335 335 331 327 323 321 319 317 312 314 312 317 316 314 313 314 316 321 318 328 323 320 318 317 315 314 314 312 311 310 310 312 312 312 309 309 308 308
332 332 331 332 334 334 333 332 332 335 337 337 338 339 343 344 344 341 340 339 340 339 338 337 336 334 333 332 331 329 325 324 321 318 316 314 311 303 306 321 322 322 317 327 329 339 339 335 328 323 325 324 320 317 309 301 299 298 299 302 304 299 301 315 317 317 322 315 314 313 312 312 312 311 310 311 309 308 310 309 311 315 312 308 308
332 331 331 331 332 335 334 334 334 335 336 338 338 340 341 343 343 341 339 338 339 338 336 334 334 332 332 331 329 327 326 324 322 321 320 317 315 311 300 301 309 314 310 309 309 312 317 322 327 318 313 312 310 303 299 297 297 296 295 295 295 297 300 306 312 315 313 312 311 312 311 312 312 310 311 310 310 309 310 310 308 309 309 311 311
Wind_Speed
10 11 11 10 9 7 8 7 7 10 11 14 13 14 14 13 12 13 11 12 11 10 9 9 9 7 6 9 9 7 6 6 6 6 6 6 6 6 6 7 7 7 6 6 6 5 5 4 4 4 3 2 3 3 3 2 0 1 2 2 3 3 2 3 3 1 3 6 1 2 4 4 6 5 7 7 7 7 6 6 6 5 6 6 6
5 7 8 9 8 8 7 8 9 9 11 14 15 14 14 14 14 13 11 12 12 12 11 10 10 9 8 8 7 6 6 6 7 6 6 6 6 6 6 7 8 7 7 6 6 6 5 5 4 5 3 3 3 3 2 1 0 1 2 4 1 1 2 2 4 3 3 0 3 6 2 2 3 4 5 6 7 7 6 6 6 6 7 7 5
8 9 10 10 11 10 9 11 11 10 8 12 14 13 13 13 12 12 11 13 12 12 11 11 9 8 8 5 7 4 5 7 7 6 6 7 6 7 7 7 8 7 7 7 6 6 6 5 5 4 3 3 2 3 2 3 2 2 2 2 5 2 2 3 3 1 2 0 0 1 4 1 1 1 4 6 7 7 5 6 7 6 8 6 6
11 12 12 11 13 11 11 12 12 10 8 11 12 13 10 10 11 12 13 13 12 12 12 11 11 9 7 6 6 6 5 5 5 6 6 6 7 6 7 8 9 8 8 7 6 6 6 6 5 4 4 3 3 3 3 3 3 3 2 3 1 4 2 3 1 1 2 1 3 1 2 2 1 3 6 6 7 8 7 8 6 7 7 4 4
11 11 11 11 12 13 13 12 11 10 9 12 12 12 9 12 11 12 12 13 12 13 13 10 8 6 5 3 3 3 1 3 5 6 7 6 4 4 6 7 9 9 8 7 7 6 5 5 5 5 4 4 3 4 4 5 4 4 4 3 3 3 4 2 3 1 2 3 2 2 3 2 2 4 2 4 4 6 8 9 7 7 7 6 6
12 13 13 13 13 12 12 13 13 12 10 8 11 11 11 11 11 10 10 11 12 13 13 10 9 9 8 7 7 5 6 5 7 8 7 7 7 6 6 8 8 8 7 7 7 6 6 6 5 5 4 5 4 5 5 3 4 4 4 4 4 4 4 3 3 3 4 2 5 5 5 3 2 2 1 3 2 5 6 7 7 8 7 6 6
6 7 8 9 10 11 13 14 14 13 12 6 8 10 12 12 13 12 11 10 11 11 12 10 9 9 11 11 9 9 8 7 4 6 7 8 5 7 7 7 8 8 8 7 7 7 6 6 6 5 5 5 4 4 4 5 5 5 4 3 5 3 3 4 3 4 5 1 3 3 4 5 3 1 3 0 3 4 3 6 7 8 6 5 7
9 9 9 9 11 13 14 14 13 13 11 8 6 10 12 13 13 12 10 11 11 11 12 11 10 9 9 9 8 9 9 8 6 6 7 7 5 7 7 7 8 8 8 7 8 8 7 6 6 6 6 5 4 5 5 5 5 4 4 4 4 4 5 5 3 2 1 3 1 2 2 2 0 0 3 3 2 2 6 4 4 6 5 8 8
10 9 10 9 11 12 12 12 12 12 11 10 7 7 10 12 13 12 11 11 11 13 13 12 11 10 10 9 8 7 7 7 6 6 7 7 6 6 7 8 8 8 8 8 8 8 7 7 6 6 6 6 4 5 4 4 5 5 5 4 4 5 5 4 2 3 3 4 3 2 2 1 3 2 2 1 1 2 5 3 4 2 3 5 6
8 9 8 7 9 10 11 12 11 12 11 9 6 5 9 10 13 14 12 11 11 13 13 13 12 10 9 9 10 8 6 6 6 6 7 6 7 7 8 7 7 7 7 7 7 7 7 7 7 7 7 7 5 5 4 4 4 5 7 7 5 4 3 3 4 5 5 3 2 2 1 2 3 2 1 0 2 3 4 4 4 4 4 4 3
8 8 7 8 8 8 8 10 11 9 6 8 6 7 9 12 12 14 14 11 12 13 13 13 11 10 10 11 11 10 8 7 6 6 6 4 5 5 6 7 7 8 8 7 8 7 7 7 7 7 7 6 6 5 5 5 5 5 6 6 4 5 5 4 4 3 2 1 1 1 2 3 2 1 4 4 1 2 3 4 5 3 2 3 1
9 8 9 8 7 7 8 10 10 10 12 10 6 7 8 11 12 12 11 12 11 13 13 13 12 11 11 11 11 10 9 8 8 8 7 7 6 5 6 6 6 7 6 7 7 6 6 6 7 6 6 6 6 6 5 6 5 5 5 5 5 5 5 5 5 4 4 3 2 2 3 3 2 3 3 2 2 2 1 3 2 2 2 2 2
5 6 8 7 9 10 10 11 10 10 13 10 8 9 8 10 13 14 12 12 12 13 13 13 12 11 11 11 11 10 9 9 8 8 7 7 7 5 5 6 6 6 7 7 7 7 6 6 6 6 6 6 6 6 6 6 6 6 5 5 6 5 6 6 5 6 5 5 5 3 2 2 3 2 2 1 0 1 2 2 1 0 2 3 2
7 4 5 6 9 10 10 11 11 10 10 10 9 8 9 9 12 14 14 12 11 12 13 13 13 13 12 12 11 10 10 9 8 8 8 7 7 7 7 7 7 8 8 8 8 7 6 7 7 7 7 6 6 6 6 6 5 6 3 4 5 6 4 5 6 5 4 5 4 5 4 3 3 2 2 1 1 2 1 1 1 1 1 3 2
9 8 6 5 6 7 10 11 11 11 11 11 9 9 8 9 11 13 13 12 12 13 12 14 13 13 12 12 11 9 10 9 8 7 7 7 6 7 6 7 7 8 8 7 6 7 7 7 7 7 7 7 6 6 6 6 6 5 3 3 2 3 3 4 4 3 4 4 4 3 5 3 1 1 2 2 2 2 2 1 2 3 4 2 2
9 8 9 10 9 6 7 9 10 10 12 11 12 10 9 9 11 14 15 14 13 13 13 14 14 12 12 12 11 10 8 8 7 6 6 6 7 7 6 7 7 6 6 6 7 7 7 7 7 8 7 7 7 7 6 6 5 6 5 4 3 2 3 3 2 1 0 1 1 1 1 1 2 3 3 3 2 2 3 2 3 3 0 4 3
8 9 8 9 10 8 9 10 10 10 10 12 12 12 11 10 10 12 12 12 13 14 15 14 12 11 11 11 10 9 9 9 9 9 8 5 5 6 7 7 6 6 6 6 6 6 6 7 7 8 7 7 7 7 7 6 6 6 5 4 3 2 3 3 3 2 1 1 0 0 0 1 1 1 2 1 2 2 3 4 3 4 4 2 2
6 6 8 8 7 10 8 11 11 12 12 11 12 9 10 10 10 12 11 12 12 12 12 10 9 10 9 10 10 10 10 10 9 8 7 6 5 5 6 6 6 6 6 6 6 7 6 7 7 7 7 7 8 7 7 7 6 6 5 4 4 3 3 3 3 3 2 1 1 1 2 2 1 1 1 0 0 0 1 2 2 2 4 4 4
10 10 9 9 9 9 9 8 10 10 11 11 10 10 10 9 10 11 12 12 14 11 9 8 11 11 11 12 12 11 9 9 8 8 8 8 8 6 6 6 6 6 7 6 6 7 7 7 7 7 6 7 7 7 6 5 5 5 3 4 3 3 4 4 3 3 2 1 0 1 2 3 2 2 2 2 3 4 4 3 2 1 2 3 4
9 10 9 10 10 10 9 8 7 9 9 9 10 9 10 8 7 10 14 13 12 11 11 12 11 11 10 10 11 10 10 9 9 9 9 10 9 7 6 6 7 6 7 8 8 8 8 8 8 8 7 6 7 7 6 6 5 5 4 4 3 4 4 3 3 1 0 1 2 2 2 2 2 2 3 3 3 3 4 5 4 3 2 0 2
8 9 9 10 11 11 11 8 6 6 7 8 9 10 9 9 10 11 14 14 14 12 12 12 11 11 10 12 12 11 11 9 9 9 10 9 7 7 7 5 4 6 7 8 9 10 9 9 9 7 7 6 6 6 6 6 5 4 5 5 4 4 4 2 2 2 1 1 2 3 2 1 1 2 1 1 1 2 3 3 2 1 1 2 3
7 9 10 10 10 10 10 9 7 3 6 10 9 9 11 12 12 12 12 13 14 12 12 12 11 9 11 12 12 10 10 9 10 10 11 9 7 5 4 3 5 6 7 8 9 9 9 10 9 8 8 7 6 6 5 5 5 4 4 4 4 3 3 2 2 2 3 3 3 3 2 1 1 1 0 0 0 1 1 0 2 3 5 4 4
7 9 9 9 9 9 8 8 6 0 6 8 9 11 12 12 10 9 11 12 13 13 12 12 11 10 11 10 9 9 9 9 11 10 10 8 5 5 3 3 4 1 5 5 2 3 7 9 8 9 9 8 6 6 5 5 5 6 5 3 2 3 4 4 4 3 3 2 2 2 1 2 1 0 1 1 1 1 2 3 4 3 4 3 3
6 8 8 6 8 8 8 5 3 3 4 4 4 7 11 12 12 11 12 13 11 10 10 11 11 11 11 9 8 7 8 9 10 9 7 6 5 4 3 2 11 12 8 9 14 14 5 7 7 7 5 4 3 3 3 4 4 4 4 4 3 3 3 3 3 3 2 2 2 2 2 2 2 1 1 2 2 2 3 3 3 3 3 3 3
7 7 10 8 7 9 7 5 1 2 4 5 7 8 8 9 9 10 12 12 12 10 10 11 11 12 10 10 8 7 7 8 8 5 5 5 4 3 11 13 14 7 6 5 1 8 4 2 6 7 7 5 5 6 6 5 4 4 5 5 4 3 3 2 2 3 4 2 2 2 2 2 1 2 2 2 2 2 3 3 3 3 3 3 3
6 6 7 10 8 8 9 8 3 5 6 7 8 9 9 8 8 6 4 1 6 5 9 11 10 11 11 11 9 7 7 8 7 5 4 4 6 13 12 9 11 10 7 9 8 5 0 4 6 8 8 7 6 6 6 6 6 5 5 4 4 5 2 4 3 2 2 2 2 2 2 2 2 2 3 2 2 2 2 2 2 3 3 3 3
6 6 4 6 8 9 9 9 7 3 0 3 6 7 6 8 8 7 8 9 8 8 9 10 10 11 11 11 10 9 8 7 5 5 4 6 12 12 11 9 9 13 12 11 7 3 1 2 6 7 7 7 6 5 6 5 4 4 4 4 3 4 3 2 2 2 1 1 2 2 2 2 2 2 2 3 2 2 2 3 3 3 3 3 2
8 8 4 4 6 9 11 9 9 3 2 0 3 2 3 6 8 8 8 8 9 10 11 10 10 11 11 12 11 8 7 6 5 5 5 8 11 9 10 10 9 8 9 7 7 5 3 2 4 5 6 6 7 7 7 5 5 5 5 4 3 3 3 2 2 2 2 2 3 2 2 2 3 3 2 2 2 3 2 3 3 2 2 2 3
10 11 9 4 5 6 9 10 8 6 1 2 2 0 2 3 3 3 4 8 8 8 10 11 10 11 11 10 7 6 6 7 7 8 8 9 11 11 10 10 9 8 6 6 7 7 6 5 4 5 5 4 5 7 7 7 6 4 4 4 3 3 3 3 2 2 2 2 1 1 1 1 2 3 4 3 4 4 3 3 3 2 2 2 2
11 12 12 8 4 4 6 9 10 9 4 5 5 4 4 2 0 1 3 4 1 5 10 10 11 12 10 6 6 6 7 7 8 8 8 10 11 11 10 9 7 6 5 4 4 5 6 7 6 5 4 5 3 2 6 10 7 5 4 4 4 4 3 3 3 2 1 1 2 1 0 2 1 3 4 4 4 4 3 2 3 3 3 3 2
12 12 13 12 10 6 5 7 9 11 8 6 5 5 6 6 5 5 5 5 4 6 9 10 9 4 3 4 6 6 7 7 8 8 8 10 10 9 7 6 6 5 6 5 5 6 6 6 6 6 6 7 6 4 9 9 10 10 6 5 4 4 3 3 3 3 3 3 3 4 3 6 6 6 6 8 8 8 7 7 7 5 4 5 3
12 12 12 14 14 13 9 9 8 10 10 6 5 6 8 9 8 8 8 4 3 5 8 10 7 3 3 8 10 9 6 3 5 8 7 7 7 7 7 8 10 10 7 6 6 6 6 6 6 6 6 5 4 6 8 8 6 7 8 5 4 4 4 4 3 3 3 4 5 4 4 3 3 3 3 4 6 9 9 9 8 8 10 8 5
10 12 12 12 13 13 13 11 7 8 9 7 5 5 4 3 6 8 8 9 8 5 1 4 6 3 7 11 12 11 10 10 12 11 7 8 7 7 7 8 9 7 7 6 6 6 6 6 6 6 5 4 4 6 6 7 5 4 8 8 4 4 4 4 3 3 4 5 5 5 3 4 3 7 5 4 5 5 8 10 10 10 10 10 3
10 10 8 10 12 12 12 12 9 7 7 5 5 6 3 0 3 4 6 7 8 9 10 6 1 4 9 7 9 10 12 13 9 8 7 8 8 9 8 6 5 6 6 6 5 7 6 6 6 6 6 5 4 5 5 5 4 3 2 4 4 4 4 4 3 4 5 5 5 4 2 2 2 4 5 6 5 5 5 5 6 7 7 11 11
11 12 10 11 12 13 14 14 10 8 4 3 3 3 4 4 0 5 6 6 4 6 8 10 12 10 9 8 10 11 11 8 8 9 9 10 9 6 5 5 6 7 8 7 7 7 6 6 6 6 6 5 4 5 3 3 3 2 1 4 4 3 4 4 5 5 5 5 4 4 3 3 4 4 5 5 4 5 5 5 6 7 7 6 7
8 9 11 11 12 13 13 13 8 9 6 3 3 3 4 3 4 3 2 1 4 2 5 10 13 13 12 11 10 7 5 6 9 10 9 7 5 5 6 6 6 5 4 5 4 6 7 7 7 6 6 6 4 5 4 5 2 2 5 3 3 4 6 7 6 5 5 5 4 4 4 4 4 3 7 7 6 3 4 6 6 6 6 6 7
8 5 9 11 11 12 11 10 7 7 8 5 5 4 4 4 3 2 3 3 1 5 6 7 10 10 8 7 7 8 7 6 5 8 8 8 8 7 6 5 6 7 7 7 6 6 7 8 8 7 7 5 4 3 3 1 3 4 4 4 5 7 7 7 6 4 5 5 4 4 4 4 4 5 8 7 8 6 6 6 6 6 6 7 8
8 9 6 9 12 12 10 9 10 7 5 5 5 5 4 1 2 3 1 2 2 2 0 2 5 7 9 7 5 6 7 5 5 7 8 7 7 5 6 6 8 8 7 7 7 7 7 8 8 9 7 7 5 2 1 4 5 5 5 5 7 8 7 7 6 5 5 5 6 12 8 5 5 5 8 8 9 7 7 6 6 8 9 9 9
11 10 8 7 11 11 10 6 6 9 7 6 6 5 4 2 2 4 4 4 3 1 2 5 6 5 5 6 6 6 5 4 2 4 2 7 8 7 6 4 5 6 7 7 7 8 8 7 7 8 11 8 5 2 2 4 7 7 7 7 9 8 8 6 6 6 5 5 5 8 11 8 5 6 9 9 9 8 7 6 5 7 8 8 6
15 11 5 4 8 11 10 8 7 9 7 6 6 6 5 4 1 3 4 4 2 4 6 7 6 7 8 6 6 6 5 5 7 5 5 2 3 6 7 7 6 5 5 7 6 5 6 7 6 7 5 5 6 3 3 8 10 11 11 8 8 9 8 7 6 6 6 4 4 4 6 8 8 8 7 8 9 10 8 6 6 7 7 7 5
11 13 11 5 6 7 8 9 6 7 7 7 8 8 7 5 4 2 2 2 3 7 7 7 8 9 9 9 7 7 6 6 6 7 8 6 2 3 6 7 7 5 7 8 8 6 6 5 6 6 6 5 4 6 5 9 12 12 12 11 7 8 8 7 6 5 5 6 5 4 3 5 6 6 6 8 9 10 9 7 7 6 3 1 3
6 11 12 8 5 8 9 8 7 8 10 8 8 8 9 7 5 5 4 4 4 8 7 5 4 6 7 7 7 7 8 7 7 7 8 7 5 4 3 3 5 8 10 10 9 9 7 6 6 5 5 5 6 8 6 10 12 12 11 11 8 7 8 8 7 5 5 5 4 4 3 2 3 3 5 8 10 11 13 8 8 10 10 11 8
11 11 8 6 6 9 8 8 8 5 4 4 3 4 4 7 5 5 3 1 6 6 6 6 6 6 7 8 8 10 9 9 9 8 9 10 7 6 6 5 7 9 8 7 8 9 8 7 6 5 5 5 5 6 8 8 11 13 13 12 12 10 10 7 8 7 6 5 3 3 3 5 3 6 9 11 11 15 12 10 15 14 14 14 10
8 9 11 11 7 2 3 6 5 4 2 4 5 6 6 5 6 4 3 3 6 7 6 6 6 7 7 6 8 9 9 9 9 9 9 11 10 9 8 10 10 10 8 7 8 9 7 8 7 6 5 5 5 6 9 10 10 13 13 14 14 13 10 6 6 7 5 5 4 3 3 3 7 9 12 15 16 14 11 14 14 14 13 10 7
8 9 9 10 8 8 3 7 7 9 6 4 5 6 3 4 4 2 3 3 4 6 6 6 6 6 8 9 8 7 8 10 11 10 11 11 10 10 8 7 9 10 10 10 7 8 9 8 8 7 6 6 6 6 6 9 12 11 13 14 14 13 11 11 7 5 5 4 5 6 5 4 6 9 14 15 14 14 15 13 13 13 11 6 7
7 6 5 8 6 5 7 6 8 7 3 1 0 1 2 2 1 1 2 4 5 6 7 7 7 7 7 10 11 10 10 9 10 10 12 10 11 10 9 9 8 8 8 10 10 9 8 8 8 7 7 6 6 6 6 5 7 10 10 12 12 12 12 11 9 6 8 7 7 7 7 5 6 9 9 8 7 9 14 14 14 11 6 6 6
5 4 3 7 8 7 10 7 9 6 4 2 2 3 3 2 4 4 4 4 4 5 5 6 6 8 10 11 12 8 7 8 10 10 9 8 7 8 9 8 7 7 7 8 9 9 8 8 8 7 7 6 6 6 6 5 5 6 5 6 7 7 8 7 6 5 5 4 3 3 7 11 13 17 15 13 10 10 8 8 6 6 6 6 5
3 3 4 6 7 10 10 7 7 6 5 3 3 4 1 3 5 5 5 4 5 5 5 5 7 5 6 9 9 13 11 8 8 9 10 10 8 8 7 9 10 9 8 9 9 9 9 9 9 7 7 6 6 5 5 5 5 5 5 5 5 5 5 5 5 5 4 4 6 10 11 8 9 9 7 5 5 6 6 5 6 5 6 5 6
3 3 7 1 8 11 9 6 7 6 3 2 5 5 4 4 5 4 4 5 5 5 6 6 7 7 3 2 6 8 8 10 9 9 8 6 4 3 4 5 2 1 6 10 9 8 8 8 9 9 9 7 6 6 3 2 3 3 4 6 5 4 3 5 4 5 8 9 8 8 7 7 6 7 6 5 5 6 5 5 4 5 5 5 4
4 3 7 6 12 12 7 4 5 5 5 4 6 6 4 3 2 3 3 5 5 5 7 8 6 7 8 6 4 6 7 9 11 10 10 10 14 14 8 4 1 3 3 5 10 10 10 9 8 5 3 9 8 7 7 7 6 7 7 7 6 6 5 5 9 13 11 9 8 7 6 6 5 5 5 5 5 5 5 5 4 3 1 1 1
6 6 1 10 12 9 8 7 3 1 3 5 6 6 5 2 0 2 3 2 4 6 6 6 7 7 9 9 8 7 6 7 8 10 10 11 8 11 17 16 11 6 5 13 12 13 14 12 12 9 10 15 14 12 9 6 6 6 6 7 8 8 9 11 14 13 9 8 8 8 6 5 5 5 5 6 5 4 2 3 1 0 0 0 1
Wind_Direction
198 196 192 191 211 223 227 225 239 224 201 197 191 189 189 187 184 189 183 178 177 181 187 190 194 199 205 208 212 203 199 201 206 208 208 214 214 210 204 212 213 211 207 201 210 216 212 218 226 256 262 236 227 225 226 251 188 223 303 327 306 328 317 323 335 58 354 330 128 181 243 232 214 186 203 219 217 220 218 220 218 201 213 220 220
166 191 193 186 199 209 219 232 230 229 196 191 190 187 189 189 187 186 179 181 181 182 185 191 194 196 193 200 199 191 190 195 212 215 214 220 216 210 203 211 211 208 205 199 204 203 209 210 220 236 252 272 254 234 207 216 165 319 348 329 266 308 287 291 310 20 349 213 345 326 0 259 223 214 227 233 228 228 225 223 216 210 214 219 217
181 192 188 191 197 202 210 223 228 225 208 193 189 183 184 189 188 182 180 181 184 183 182 191 195 195 190 182 189 185 196 198 204 212 217 224 218 204 200 202 206 209 204 196 197 203 206 205 219 228 239 245 265 274 258 258 243 268 283 255 305 298 271 271 270 145 245 126 237 28 301 114 340 305 256 244 232 231 232 235 225 217 222 215 207
188 189 192 194 194 196 206 216 220 221 219 205 196 192 185 185 182 177 180 180 182 185 187 191 191 189 188 172 178 178 181 198 207 219 225 228 231 214 202 196 197 204 200 196 201 200 198 206 214 221 237 231 223 234 241 243 260 282 270 253 204 303 325 304 288 168 193 26 345 225 251 116 14 266 216 238 221 228 225 233 229 229 232 221 197
189 193 197 194 198 199 201 209 211 215 220 208 200 196 195 188 180 173 175 179 181 184 186 183 178 173 175 169 156 186 216 191 209 226 228 228 214 205 203 198 197 199 197 197 199 199 196 200 204 214 223 236 219 219 227 224 218 218 225 242 243 229 283 290 311 344 261 179 167 316 341 2 228 245 199 276 226 227 240 235 233 234 233 229 220
185 191 195 195 197 197 200 204 211 215 214 212 206 196 193 188 179 174 174 176 181 182 181 175 178 177 174 182 200 202 212 204 208 219 228 231 218 199 198 196 197 198 196 199 199 194 196 198 200 208 218 226 218 226 225 223 227 229 232 223 251 228 227 281 293 306 287 217 191 201 193 210 235 268 86 278 318 230 232 230 229 233 230 228 239
205 197 197 199 199 197 200 202 207 214 214 207 207 195 188 183 179 176 173 176 178 178 177 175 178 183 187 194 200 204 212 224 207 215 222 231 205 191 196 194 197 196 199 196 197 198 196 198 202 207 215 213 213 213 219 217 222 224 237 221 229 234 187 222 237 274 331 294 195 220 220 218 191 123 262 48 336 321 286 239 234 229 218 220 232
190 193 194 197 190 192 198 200 200 206 205 207 210 196 187 182 178 178 175 175 177 173 177 179 180 184 188 196 199 205 210 216 205 216 222 223 201 197 191 195 196 199 197 196 196 197 197 201 201 206 210 214 203 205 217 228 230 243 229 221 238 207 192 200 238 253 235 277 279 316 340 321 273 236 163 216 201 272 308 316 270 243 212 223 223
188 189 194 190 189 195 196 198 201 201 199 203 215 192 182 182 179 176 176 176 177 174 178 184 184 184 187 191 201 209 208 210 206 212 217 215 206 198 193 194 194 199 198 196 198 197 197 199 200 203 207 216 208 202 214 226 230 242 248 237 231 227 213 212 176 222 210 251 315 332 342 322 322 310 305 114 176 202 279 272 288 316 291 266 244
202 198 197 196 196 201 200 197 196 200 202 203 210 172 174 179 179 178 178 178 177 178 180 183 185 182 187 195 201 208 205 212 206 215 217 198 203 193 194 190 193 196 200 197 196 200 200 198 198 201 204 206 209 208 212 228 235 235 238 231 219 230 230 215 203 220 210 238 225 224 347 333 7 359 3 347 284 222 233 282 277 298 317 298 299
202 202 199 200 200 203 198 201 203 192 216 218 206 174 168 177 180 181 179 178 176 179 180 184 185 185 192 196 202 206 208 202 208 224 226 200 195 187 192 201 193 195 195 202 197 194 199 198 198 201 199 199 204 204 221 230 237 233 235 222 220 218 237 224 231 228 222 190 200 173 224 235 241 231 276 292 272 289 313 302 314 325 255 303 306
207 203 203 195 188 195 197 206 206 185 196 220 200 183 169 170 172 179 179 178 177 180 181 184 185 190 194 194 200 206 204 207 204 211 216 220 208 197 195 189 201 196 196 200 205 198 191 194 196 193 193 195 201 207 220 228 238 236 236 228 227 225 232 236 239 257 254 245 252 232 234 224 222 235 259 245 239 258 217 279 296 314 351 257 263
259 226 204 196 193 188 195 203 201 195 195 200 197 191 178 169 169 175 181 182 181 179 182 183 186 191 194 197 202 202 201 205 205 207 212 212 213 195 178 192 193 192 200 203 208 204 193 192 192 190 194 196 200 208 221 226 234 236 235 233 232 228 223 220 219 229 226 233 251 257 247 256 260 254 259 249 249 190 136 64 281 305 253 301 294
0 311 273 228 200 195 196 197 198 199 197 193 196 200 187 173 173 175 181 180 180 182 183 184 190 193 195 197 201 198 201 200 202 206 208 210 205 204 187 187 190 196 196 205 202 202 199 197 193 194 193 195 199 208 220 225 227 233 229 238 238 234 227 225 225 229 231 241 230 260 271 253 244 210 195 176 195 125 75 116 260 331 266 265 294
4 355 348 321 276 221 195 195 198 199 194 193 194 195 194 174 175 178 178 180 178 183 183 187 191 194 195 198 200 200 203 202 202 202 204 206 211 206 198 187 189 196 198 202 195 196 199 193 193 194 197 200 200 209 220 227 233 233 192 199 214 200 184 200 224 243 262 271 282 264 274 297 323 303 128 107 100 120 154 181 122 2 336 348 316
351 351 344 331 321 264 232 201 198 198 195 190 192 191 191 185 179 181 181 180 180 182 186 187 191 191 193 197 200 200 204 207 211 210 211 209 211 210 201 194 193 191 201 197 202 197 198 197 198 204 201 201 202 206 213 217 220 212 204 186 193 192 132 142 183 159 183 299 289 263 162 160 149 97 102 134 156 173 168 167 128 126 234 307 326
344 340 334 323 321 300 226 215 201 196 193 193 193 189 188 182 181 183 183 180 181 186 188 188 187 187 194 198 198 200 203 207 212 218 220 218 216 218 205 195 192 189 199 206 207 203 202 199 200 208 206 207 207 210 214 216 208 206 200 203 229 206 141 159 168 148 191 187 208 205 152 190 207 157 124 156 165 179 181 180 173 164 165 188 258
326 312 314 311 304 312 271 222 206 196 192 194 192 182 173 187 186 182 176 180 187 187 184 178 178 188 196 200 201 201 204 209 212 218 223 222 221 220 219 198 191 194 201 211 206 204 207 207 206 209 208 206 210 211 213 213 197 196 187 187 216 192 160 163 180 171 202 210 271 270 227 234 208 133 157 241 192 208 220 219 221 196 156 181 196
336 334 329 319 316 310 311 261 222 209 195 192 189 176 174 184 188 158 165 196 190 182 157 168 185 188 193 198 199 201 203 205 207 211 213 221 218 210 214 214 209 196 198 207 207 207 204 205 205 209 205 207 209 212 206 198 189 187 184 200 224 186 181 196 216 195 206 179 4 2 16 72 28 20 358 0 5 13 355 340 358 123 192 176 179
328 324 321 311 305 303 299 301 242 204 194 185 185 183 177 171 170 177 179 188 190 176 162 179 187 195 198 195 198 200 199 199 201 201 209 215 217 211 205 211 219 211 204 207 208 209 203 202 205 206 203 202 205 210 199 199 191 185 183 199 193 168 174 204 251 286 193 136 112 99 65 58 20 35 32 23 28 34 39 35 32 40 38 52 132
324 319 313 309 305 306 306 308 286 209 187 175 179 182 170 170 170 172 178 187 190 183 174 187 189 194 191 194 199 198 199 196 199 202 209 213 213 216 216 213 204 216 207 204 206 207 204 200 199 199 195 198 202 206 203 195 190 187 190 183 171 159 155 192 192 242 3 79 93 98 72 53 5 66 22 1 37 63 68 79 94 304 244 170 147
323 315 316 310 303 302 306 309 320 190 174 182 175 150 168 181 184 173 178 186 192 185 184 190 198 186 190 198 201 199 196 194 195 200 205 206 205 209 217 228 230 226 205 202 197 196 198 193 193 186 192 194 197 200 203 186 187 188 193 193 174 148 129 130 122 101 94 98 128 136 163 173 178 158 268 301 34 88 112 201 205 220 236 209 195
321 322 316 313 303 302 303 297 327 155 180 178 163 166 176 187 182 170 180 196 197 188 187 190 194 189 197 200 197 195 194 197 202 204 208 200 195 201 184 207 234 227 38 17 330 235 191 189 184 186 192 198 194 193 189 182 185 184 185 166 140 136 140 141 129 136 144 153 130 154 165 179 181 192 255 255 256 210 194 216 245 234 233 215 197
331 322 319 313 313 306 303 302 10 43 114 131 167 182 185 183 180 177 188 196 200 195 188 192 197 199 199 197 194 190 188 196 208 209 202 196 196 203 207 13 31 36 41 29 359 320 255 190 178 177 170 148 141 150 163 174 173 163 148 135 130 126 127 114 136 156 165 166 161 139 198 199 213 225 248 270 261 247 224 227 239 250 244 241 210
336 329 321 321 315 311 301 286 123 106 145 164 173 172 176 191 194 190 195 196 198 193 186 194 196 200 202 201 197 183 184 193 204 194 191 194 190 84 50 62 77 55 54 70 170 276 287 201 140 141 140 139 136 139 136 127 124 129 127 130 127 129 95 109 190 182 181 167 169 188 204 205 197 217 267 270 274 269 238 230 236 247 238 245 232
327 321 324 324 314 301 298 287 248 161 165 181 185 191 194 196 200 186 162 182 257 234 199 190 192 196 203 205 199 185 192 194 187 176 177 168 91 80 93 92 119 141 164 175 202 211 125 184 156 139 137 137 139 131 132 132 125 118 118 125 137 107 169 183 181 181 167 176 175 201 203 201 196 215 256 259 269 269 271 252 254 256 246 236 235
317 312 303 306 314 307 297 297 296 313 312 168 201 209 203 196 197 192 185 187 201 228 224 198 190 196 200 205 200 193 188 190 180 162 138 108 100 110 115 144 167 160 169 181 179 108 158 209 141 134 136 134 124 112 92 83 93 121 130 129 128 145 150 141 152 173 181 169 194 209 208 194 204 220 244 257 256 266 269 263 247 246 226 230 253
327 326 341 320 303 308 302 296 300 292 117 331 328 331 247 219 205 198 200 206 199 198 215 205 190 196 202 203 202 188 175 160 137 127 123 116 119 134 148 163 169 176 177 164 130 160 163 123 110 121 133 132 126 111 118 139 154 143 135 140 150 143 142 153 171 196 208 213 207 214 220 210 205 223 229 248 223 248 248 264 275 267 251 233 252
327 323 327 332 305 292 285 291 287 290 276 188 201 177 26 320 314 315 263 228 211 196 220 217 196 198 202 201 186 162 149 144 141 139 137 130 137 152 164 167 171 174 160 152 164 149 143 127 120 126 135 138 128 134 152 159 144 138 141 152 153 145 157 163 186 203 207 216 243 237 220 190 220 231 248 243 226 228 215 260 278 258 274 261 273
322 320 319 323 304 267 275 283 280 264 219 198 189 174 168 160 92 239 245 253 261 220 234 231 209 199 199 184 146 132 134 130 133 137 140 144 152 162 166 164 164 168 153 162 166 146 145 148 140 136 128 94 97 181 162 153 152 152 152 145 147 166 161 160 165 173 193 194 173 148 253 220 126 62 49 40 4 334 313 246 250 258 264 266 263
316 319 321 322 323 317 308 282 264 262 242 215 205 179 170 161 166 194 227 238 219 236 247 248 240 219 189 135 99 95 110 117 115 127 158 160 162 163 155 138 130 171 183 178 169 156 153 145 146 143 135 137 182 184 147 146 159 160 152 150 162 168 169 167 166 150 144 115 75 77 60 63 51 30 11 7 2 1 2 353 337 316 257 220 212
314 317 319 324 326 325 329 316 266 259 257 234 211 204 183 168 162 168 179 161 220 243 257 260 261 205 137 93 93 71 50 53 150 178 171 152 161 160 157 162 167 183 181 170 160 155 142 139 139 138 131 132 122 119 130 149 156 167 157 157 164 166 168 164 155 145 127 112 109 89 66 44 42 43 29 1 353 357 2 355 352 347 348 331 244
304 309 316 322 320 320 319 314 285 245 261 277 262 230 213 178 148 149 142 138 135 127 79 325 320 315 87 92 103 129 145 169 197 182 163 171 173 170 170 175 181 174 155 159 157 143 140 135 134 131 123 115 106 118 119 128 131 130 164 163 160 163 152 144 138 121 112 122 120 98 75 44 4 14 17 3 5 354 352 358 2 7 359 350 331
291 299 312 318 317 316 310 306 294 253 246 281 300 311 308 248 156 134 133 146 153 143 141 148 164 62 78 96 126 146 170 187 167 118 165 179 181 188 180 161 143 138 153 159 147 143 137 135 135 132 124 114 103 117 99 114 112 145 171 142 154 148 135 134 127 104 112 121 117 110 104 51 17 19 11 10 6 357 353 359 16 26 25 25 34
294 313 331 327 317 314 313 311 307 306 272 233 258 278 309 328 51 167 166 172 173 160 147 127 112 112 134 160 174 185 191 182 136 141 164 180 185 174 139 136 141 151 163 164 156 147 141 135 128 121 121 111 97 84 72 87 65 28 171 135 130 119 105 84 74 77 89 103 103 104 96 68 34 17 14 9 4 348 355 21 43 42 35 28 26
293 314 316 322 318 311 307 301 312 315 308 295 294 325 339 339 356 320 294 82 78 103 141 135 135 148 162 175 183 176 177 174 158 156 163 162 154 152 149 145 141 144 143 141 144 144 141 128 122 119 111 103 74 55 43 43 50 216 187 115 114 103 89 82 74 72 79 77 82 82 82 63 41 28 13 8 1 14 38 54 55 44 37 31 27
287 304 312 325 307 300 307 310 318 320 319 336 337 354 358 356 351 329 337 325 203 165 168 153 144 147 151 175 174 164 173 185 149 141 146 153 155 163 161 157 149 157 157 162 158 140 127 127 123 121 116 118 128 75 63 55 235 198 141 124 95 88 93 89 78 80 79 76 70 67 75 78 55 41 15 353 11 57 55 55 55 50 43 40 18
295 310 327 320 308 309 318 320 321 312 304 329 350 0 1 27 224 265 250 229 243 253 170 107 92 130 160 164 168 172 182 174 134 154 153 157 159 157 169 173 165 160 162 158 141 129 128 130 132 134 138 137 140 125 193 228 184 156 137 117 107 110 103 99 88 68 70 73 86 85 78 67 60 47 16 11 25 55 60 53 51 50 45 34 11
305 307 317 316 307 309 312 320 304 310 324 346 2 10 357 344 155 172 204 217 196 130 64 63 90 118 137 162 178 185 184 174 109 52 89 148 162 165 170 162 163 155 148 143 135 130 126 120 126 129 139 129 123 136 224 179 142 122 104 110 117 116 112 112 111 89 62 65 53 63 68 68 70 52 33 23 35 58 65 57 55 61 54 41 4
302 302 290 270 291 311 321 324 324 318 325 346 3 5 355 353 53 169 192 220 162 94 85 90 106 122 135 139 154 160 156 130 121 112 69 38 161 154 162 164 158 157 141 120 99 87 104 112 110 116 107 110 109 87 51 84 95 97 102 110 121 121 124 125 117 113 100 70 68 65 53 53 51 42 35 45 55 68 77 68 64 62 55 38 342
287 304 306 232 258 275 294 305 324 323 331 351 13 3 353 347 333 310 234 204 137 107 113 131 137 138 140 143 149 150 120 92 110 138 144 134 171 194 166 159 149 118 96 84 90 90 92 93 94 93 100 89 102 98 69 81 84 87 96 107 121 126 129 125 116 105 107 108 93 68 63 56 42 40 41 52 68 74 76 70 63 66 70 320 17
288 301 306 277 265 280 293 318 358 357 354 354 3 7 354 342 337 319 334 330 129 147 154 147 137 130 135 137 134 118 115 126 137 152 146 138 139 176 157 130 90 98 99 106 113 111 102 98 89 96 97 97 97 102 98 73 78 77 78 98 114 127 132 122 110 113 109 109 117 128 127 95 51 50 56 58 63 71 68 70 68 69 56 50 49
333 317 309 279 289 296 299 309 330 360 9 338 2 29 342 333 321 297 286 273 140 149 150 145 137 135 140 144 145 144 144 148 160 164 132 117 106 80 77 59 71 87 89 114 119 112 112 112 105 87 85 85 82 82 85 81 73 76 76 80 98 107 111 112 124 128 135 135 144 145 144 131 94 61 60 56 59 70 68 66 62 53 48 42 41
318 302 307 316 311 237 215 262 276 286 260 242 229 198 189 199 233 224 245 178 152 151 148 146 145 141 132 140 154 156 154 149 150 143 122 113 113 134 136 121 127 133 140 134 129 126 130 122 118 106 91 83 78 84 76 83 82 80 81 87 92 100 107 119 117 128 134 140 141 152 148 116 66 55 58 69 77 78 74 65 59 56 50 46 40
297 300 303 309 315 350 276 228 233 237 228 220 258 271 244 241 245 184 189 166 152 146 148 154 154 145 144 151 155 159 164 164 152 133 116 119 141 143 128 138 142 150 152 139 141 140 133 135 126 123 118 102 96 93 92 92 92 85 89 94 95 94 99 106 111 122 135 142 146 135 121 83 75 80 86 86 79 78 77 72 65 58 54 44 44
264 271 279 298 337 327 272 271 264 255 282 330 110 313 282 282 237 215 160 160 156 154 154 159 151 144 146 141 144 164 175 159 136 130 136 149 155 143 138 147 151 156 153 139 137 135 137 135 132 128 119 112 92 77 66 62 81 90 91 90 90 97 101 100 101 108 121 126 122 114 105 98 76 76 84 85 87 83 79 73 66 59 49 50 47
318 320 301 360 8 291 273 268 276 295 308 324 316 244 213 163 191 195 185 166 165 164 165 156 152 147 145 151 150 157 145 134 125 123 123 132 138 146 148 147 146 156 152 133 131 139 138 137 134 128 114 100 84 78 80 79 82 84 80 79 79 77 84 85 81 87 101 109 147 99 77 74 71 75 83 89 86 81 71 63 52 47 46 43 50
291 289 32 32 264 250 254 253 269 277 278 297 290 280 280 190 203 193 188 182 174 167 160 147 135 143 160 159 146 146 134 106 97 106 118 130 138 142 158 158 161 162 150 141 146 146 148 145 139 129 115 105 95 89 84 97 89 96 91 84 92 90 88 96 88 74 85 100 102 95 84 74 80 76 74 66 63 64 69 69 60 48 45 35 39
310 341 45 256 256 256 260 265 266 269 267 248 251 248 245 232 216 193 182 179 177 156 139 129 137 134 115 129 137 129 127 121 104 82 60 56 62 70 110 105 25 53 145 148 147 144 146 146 139 142 131 116 121 117 138 85 87 73 114 118 105 110 93 69 65 95 99 85 89 85 85 77 71 81 78 71 65 68 65 61 65 60 40 30 33
306 54 88 269 265 264 268 285 298 314 318 305 284 278 272 238 190 187 187 180 163 144 143 145 142 137 124 118 109 128 126 118 114 110 102 80 63 63 46 69 75 6 10 149 148 153 154 139 115 74 110 142 142 141 125 107 103 95 85 85 81 71 69 81 92 92 93 90 84 89 83 92 86 81 85 83 85 84 78 68 62 74 62 22 24
322 48 102 248 255 277 313 309 310 291 285 289 292 294 313 326 138 219 228 198 149 149 145 138 139 146 146 141 140 135 128 112 115 117 114 113 101 52 44 42 50 17 140 119 114 114 117 124 122 114 67 75 102 112 122 138 122 106 102 102 100 108 116 115 106 90 74 88 97 93 95 94 104 102 94 85 69 66 79 101 130 229 268 279 350